Location: Goudex
(43.3760°N, 0.9543°E)
Time: 03:55:13
(UTC+00:00)

Cosmos 1484 Rocket - Pass Details

Date: 20 November 2019
Orbit: 507 x 559 km, 97.4° (Epoch: 05 December)

Event Time Altitude Azimuth Distance (km) Brightness Sun altitude
Rises 05:07:48 0° 10° (N) 2,752 6.4 -19.4°
Reaches altitude 10° 05:09:56 10° 9° (N) 1,854 5.5 -19.0°
Maximum altitude 05:13:57 78° 284° (WNW) 577 2.7 -18.3°
Drops below altitude 10° 05:17:56 10° 198° (SSW) 1,837 5.4 -17.5°
Sets 05:20:03 0° 197° (SSW) 2,724 6.3 -17.2°
